Location: Finkenwalde
(53.3770°N, 14.6418°E)
Time: 10:26:06
(UTC+00:00)

Cosmos 2322 Rocket - Pass Details

Date: 05 February 2023
Orbit: 832 x 851 km, 71.0° (Epoch: 20 March)

Event Time Altitude Azimuth Distance (km) Brightness Sun altitude
Rises 17:46:25 0° 216° (SW) 3,367 5.9 -17.2°
Reaches altitude 10° 17:48:51 10° 218° (SW) 2,438 5.2 -17.6°
Maximum altitude 17:54:26 74° 304° (NW) 869 2.3 -18.4°
Enters shadow 17:59:48 12° 30° (NNE) 2,351 4.2 -19.2°
